www.pogodaiklimat.ru
ПОГОДА в Нитре
Время
(UTC), дата
13 4.08
14 4.08
15 4.08
16 4.08
17 4.08
18 4.08
19 4.08
20 4.08
21 4.08
22 4.08
23 4.08
00 5.08
01 5.08
02 5.08
03 5.08
04 5.08
05 5.08
06 5.08
07 5.08
08 5.08
09 5.08
10 5.08
11 5.08
12 5.08
13 5.08
14 5.08
15 5.08
16 5.08
17 5.08
18 5.08
19 5.08
20 5.08
21 5.08
22 5.08
23 5.08
00 6.08
01 6.08
02 6.08
03 6.08
04 6.08
05 6.08
06 6.08
07 6.08
08 6.08
09 6.08
10 6.08
11 6.08
12 6.08
13 6.08
14 6.08
15 6.08
16 6.08
17 6.08
18 6.08
19 6.08
20 6.08
21 6.08
22 6.08
23 6.08
00 7.08
01 7.08
02 7.08
03 7.08
04 7.08
05 7.08
06 7.08
07 7.08
08 7.08
09 7.08
10 7.08
11 7.08
12 7.08
13 7.08
14 7.08
15 7.08
16 7.08
17 7.08
18 7.08
19 7.08
20 7.08
21 7.08
22 7.08
23 7.08
00 8.08
01 8.08
02 8.08
03 8.08
04 8.08
05 8.08
06 8.08
07 8.08
08 8.08
09 8.08
10 8.08
11 8.08
12 8.08
13 8.08
14 8.08
15 8.08
16 8.08
17 8.08
18 8.08
19 8.08
20 8.08
21 8.08
22 8.08
23 8.08
00 9.08
01 9.08
02 9.08
03 9.08
04 9.08
05 9.08
06 9.08
07 9.08
08 9.08
09 9.08
10 9.08
11 9.08
12 9.08
13 9.08
14 9.08
15 9.08
16 9.08
17 9.08
18 9.08
19 9.08
20 9.08
21 9.08
22 9.08
23 9.08
00 10.08
01 10.08
02 10.08
03 10.08
04 10.08
05 10.08
06 10.08
07 10.08
08 10.08
09 10.08
10 10.08
11 10.08
12 10.08
13 10.08
14 10.08
15 10.08
16 10.08
17 10.08
18 10.08
19 10.08
20 10.08
21 10.08
22 10.08
23 10.08
00 11.08
01 11.08
02 11.08
03 11.08
04 11.08
05 11.08
06 11.08
07 11.08
08 11.08
09 11.08
10 11.08
11 11.08
12 11.08
Ветер
(напр.,м/с)
Видим. Явления Облачность Т
(С)
Тd
(С)
f
(%)
Тe
(С)
Тes
(С)
Комфортность P
(гПа)
Po
(гПа)
Тmin
(С)
Tmax
(С)
R
(мм)
R24
(мм)
S
(см)
З 2 30 км 8/3 800 м
[Cu med, cong Ci sp]
+26.2 +16.8 56 +30 +37 душно 1007.4 992.0
СЗ 2 30 км 10/4 1050 м
[Cu med, cong As trans]
+25.4 +17.1 60 +29 +31 душно 1008.0 992.6
СЗ 7 28 км 5/3 1230 м
[Cu med, cong Ci sp]
+25.4 +18.6 66 +30 +31 душно 1007.9 992.5
СЗ 9 30 км 5/1 1260 м
[Cu med, cong Ac cast Ci sp]
+24.3 +18.0 68 +29 +29 душно 1008.6 993.1
СЗ 7 35 км 9/1 1200 м
[Cu med, cong Ac As Ci sp]
+21.5 +16.7 74 +25 +25 комфорт 1009.8 994.2
СЗ 10 35 км 9/5 1500 м
[Sc Ac As]
+20.6 +16.2 76 +23 +23 комфорт 1010.1 994.4 +26.5
СЗ 8 40 км слаб. дождь 9/9 1410 м
[Sc]
+19.1 +16.2 83 +20 +20 1011.1 995.3
СЗ 8 30 км слаб. дождь 9/8 1380 м
[Sc Ac As]
+18.0 +15.8 87 +17 +17 1011.4 995.5
СЗ 9 н/о н/о +17.5 +14.8 84 +16 +16 1011.5 995.6
СЗ 6 н/о н/о +17.3 +14.6 84 +16 +16 1012.1 996.2
СЗ 6 н/о н/о +17.0 +14.3 84 +16 +16 1012.2 996.3
З 3 н/о н/о +16.9 +14.0 83 +17 +17 1011.7 995.8 0.2
СЗ 4 н/о н/о +16.7 +13.4 81 +16 +16 1012.8 996.8
СЗ 4 н/о н/о +15.8 +15.0 95 +15 +15 1012.9 996.9
СЗ 4 н/о н/о +15.9 +15.3 96 +15 +15 1013.1 997.1
С 5 н/о н/о +16.4 +14.8 90 +15 +15 1013.6 997.6
СЗ 4 н/о н/о +17.1 +15.3 89 +17 +17 1013.4 997.5
С 5 28 км {дождь} 8/8 330 м
[Sc]
+18.0 +15.4 85 +18 +18 1013.6 997.7 +15.6 13 13.0
СЗ 2 30 км 9/6 930 м
[Sc Ac As]
+18.5 +15.6 83 +20 +21 1014.2 998.3
С 2 45 км 10/6 1080 м
[Sc Ac As]
+19.4 +16.1 81 +22 +23 комфорт 1014.5 998.7
СЗ 3 50 км 9/8 800 м
[Cu Sc Ac As]
+20.5 +15.9 75 +24 +25 комфорт 1014.7 998.9
С 3 50 км 9/9 1020 м
[Cu Sc]
+22.1 +16.2 69 +26 +27 душно 1014.7 999.0
СЗ 3 50 км 9/9 1080 м
[Cu Sc]
+23.8 +16.8 65 +27 +29 жарко 1014.7 999.1
С 3 45 км 9/9 1380 м
[Sc]
+24.7 +17.0 62 +28 +30 душно 1014.5 999.0
С 5 45 км 9/9 1230 м
[Cu Sc]
+24.1 +16.9 64 +28 +28 душно 1014.7 999.1
СЗ 3 45 км 9/9 1230 м
[Cu Sc]
+23.8 +16.6 64 +27 +28 жарко 1014.6 999.0
СЗ 4 50 км 9/9 1320 м
[Cu Sc]
+23.8 +16.8 65 +27 +28 жарко 1014.8 999.2
С 5 50 км 3/1 1320 м
[Cu Sc Ac lent]
+24.4 +16.9 63 +28 +29 душно 1015.0 999.4
С 5 45 км 3/1 1320 м
[Sc diur, vesp Ac lent Ci fib]
+23.6 +16.9 66 +27 +28 жарко 1014.9 999.3
С 4 45 км 1/1 1380 м
[Sc diur, vesp Ac lent]
+22.3 +16.1 68 +26 +26 жарко 1015.5 999.8 +25.4
С 3 50 км 3/3 1380 м
[Sc diur, vesp Ac lent]
+20.8 +15.8 73 +24 +24 комфорт 1016.0 1000.2
СЗ 2 50 км 3/3 1300 м
[Sc diur, vesp Ac lent]
+19.4 +15.9 80 +22 +22 комфорт 1016.0 1000.2
СЗ 3 н/о н/о +17.9 +15.7 87 +18 +18 1016.3 1000.4
СЗ 1 н/о н/о +17.6 +15.6 88 +19 +19 1016.5 1000.5
СЗ 2 н/о н/о +17.4 +15.9 91 +18 +18 1016.9 1000.9
СЗ 3 н/о н/о +17.7 +15.9 89 +18 +18 1017.0 1001.0
СЗ 2 н/о н/о +17.9 +15.7 87 +18 +18 1017.3 1001.3
СЗ 2 н/о н/о +16.9 +15.6 92 +17 +17 1017.4 1001.4
С 1 н/о н/о +16.2 +15.2 94 +17 +17 1017.4 1001.3
СЗ 2 н/о н/о +15.8 +15.3 97 +16 +16 1017.5 1001.4
СЗ 2 н/о н/о +17.4 +15.7 90 +18 +18 1017.8 1001.8
нст 1 30 км 3/0
[Ac cast]
+18.8 +16.4 86 +21 +24 комфорт 1018.0 1002.1 +15.7
30 км 1/0
[Ac cast Ci fib]
+22.1 +16.6 71 1018.1 1002.4
30 км 3/0
[Ac cast Ci fib]
+25.0 +17.0 61 1018.2 1002.6
В 3 30 км 4/1 1230 м
[Cu hum Ac cast]
+26.1 +16.4 55 +30 +37 душно 1018.4 1002.9
С 2 30 км 5/3 1500 м
[Cu med, cong Ac cast]
+27.4 +16.7 52 +31 +40 душно 1018.1 1002.6
30 км 5/1 1470 м
[Cu med, cong Ac cast Ci fib]
+27.4 +17.3 54 1018.1 1002.6
нст 2 30 км 4/3 1500 м
[Cu med, cong Ac cast Ci fib]
+29.7 +17.6 48 +34 +43 очень
душно
1017.7 1002.4
С 3 30 км 3/3 1500 м
[Cu med, cong Ac lent]
+29.5 +17.4 48 +34 +41 очень
душно
1017.3 1002.0
ЮВ 3 30 км 5/5 1500 м
[Cu med, cong]
+31.2 +15.2 38 +34 +37 душно 1017.0 1001.7
В 4 35 км 3/3 1500 м
[Cu med, cong Ci fib]
+31.1 +12.5 32 +32 +34 жарко 1017.1 1001.8
В 4 35 км 3/3 1500 м
[Cu med, cong Ci fib]
+31.3 +12.7 32 +32 +33 жарко 1017.2 1001.9
В 4 35 км 3/3 2000 м
[Sc diur, vesp]
+29.9 +13.2 36 +31 +32 жарко 1017.6 1002.3
СВ 3 35 км 1/1 2000 м
[Sc diur, vesp]
+27.7 +14.4 44 +30 +30 жарко 1018.1 1002.6 +31.3
СВ 3 35 км 1/1 1500 м
[Sc diur, vesp Ci fib]
+24.5 +13.4 50 +27 +27 жарко 1018.6 1003.0
СВ 3 40 км 1/1 1500 м
[Sc diur, vesp]
+22.7 +14.8 61 +26 +26 жарко 1019.0 1003.3
н/о н/о +20.0 +14.4 70 1019.5 1003.6
н/о н/о +19.4 +14.4 73 1019.8 1003.9
н/о н/о +19.2 +14.9 76 1019.9 1004.0
С 2 н/о н/о +18.6 +15.1 80 +20 +20 1019.9 1003.9
СЗ 2 н/о н/о +18.3 +14.8 80 +19 +19 1019.8 1003.8
С 2 н/о н/о +17.6 +14.7 83 +18 +18 1019.7 1003.7
С 2 н/о н/о +17.2 +14.7 85 +18 +18 1019.6 1003.6
С 2 н/о н/о +16.9 +14.7 87 +17 +17 1020.0 1003.9
СЗ 2 н/о н/о +18.2 +15.6 85 +19 +19 1020.3 1004.3
СЗ 2 30 км 4/0
[Ac cast Ci fib]
+20.7 +16.3 76 +25 +27 комфорт 1020.4 1004.6 +16.8
30 км 4/0
[Ac cast Ci fib]
+24.2 +17.5 66 1020.2 1004.5
СВ 4 30 км 3/0
[Ac cast Ci fib]
+28.8 +15.0 43 +31 +37 жарко 1019.8 1004.4
В 5 30 км 3/0
[Ac cast Ci fib]
+30.3 +14.4 38 +32 +38 жарко 1019.6 1004.3
30 км 3/0
[Ac cast Ci fib]
+31.6 +14.3 35 1019.4 1004.1
В 3 30 км 4/1 1500 м
[Cu med, cong Ac lent Ci fib]
+32.7 +12.9 30 +33 +43 жарко 1019.0 1003.8
В 5 30 км 5/3 2000 м
[Cu med, cong Ac cuf Ci fib]
+32.5 +11.7 28 +33 +37 жарко 1019.0 1003.7
В 6 30 км 6/3 2000 м
[Cu med, cong Ac cuf Ci fib]
+32.9 +13.1 30 +34 +36 очень
жарко
1018.7 1003.5
СВ 3 30 км 6/3 2000 м
[Cu med, cong Ac cuf Ci fib]
+33.0 +11.0 26 +33 +37 жарко 1018.5 1003.3
В 4 30 км 5/3 2000 м
[Cu med, cong Ac cuf Ci fib]
+33.1 +12.7 29 +34 +36 очень
жарко
1018.4 1003.2
В 3 30 км 5/1 2000 м
[Cu med, cong Ac cuf Ci fib]
+32.4 +13.1 31 +33 +35 жарко 1018.2 1003.0
В 3 30 км 5/1 2000 м
[Cu med, cong Ac cuf Ci fib]
+32.0 +12.8 31 +33 +33 жарко 1018.2 1002.9
СВ 2 30 км 5/0
[Ac lent Ci fib]
+29.5 +13.7 38 +31 +31 жарко 1018.3 1002.9 +33.8
30 км 5/0
[Ac lent Ci fib]
+24.5 +15.2 56 1018.8 1003.2
СЗ 2 30 км 4/0
[Ac lent Ci fib]
+21.5 +15.6 69 +25 +25 комфорт 1019.3 1003.5
СЗ 2 н/о н/о +21.1 +15.2 69 +24 +24 комфорт 1019.4 1003.6
СЗ 2 н/о н/о +20.6 +16.2 76 +24 +24 комфорт 1019.4 1003.6
С 2 н/о н/о +20.3 +16.1 77 +24 +24 комфорт 1019.9 1004.0
СЗ 2 н/о н/о +18.4 +15.5 83 +19 +19 1020.0 1004.0
СЗ 3 н/о н/о +18.0 +16.0 88 +18 +18 1019.9 1003.9
С 3 н/о н/о +18.6 +16.2 86 +20 +20 1019.8 1003.9
С 2 н/о н/о +18.0 +15.8 87 +19 +19 1019.7 1003.7
С 2 н/о н/о +17.6 +15.6 88 +18 +18 1019.8 1003.8
СЗ 3 н/о н/о +18.8 +15.9 83 +20 +20 1020.0 1004.0
нст 1 30 км ясно +21.8 +16.3 71 +26 +30 душно 1020.0 1004.2 +17.6
30 км 1/0
[Ci fib]
+24.4 +16.9 63 1019.8 1004.2
28 км 1/0
[Ci fib]
+28.3 +16.9 50 1019.4 1004.0
нст 2 28 км 1/0
[Ci fib]
+30.9 +16.9 43 +34 +47 душно 1019.2 1003.9
28 км 1/1 1500 м
[Cu hum Ci fib]
+31.9 +13.7 33 1018.9 1003.6
30 км 1/1 1500 м
[Cu hum]
+32.3 +14.0 33 1018.5 1003.3
ЮЗ 2 30 км 1/1 1500 м
[Cu med, cong]
+33.0 +14.6 33 +35 +48 душно 1018.1 1002.9
30 км 1/1 1500 м
[Cu med, cong]
+33.8 +12.8 28 1017.6 1002.4
СЗ 2 30 км 1/1 1500 м
[Cu med, cong]
+33.5 +12.5 28 +34 +42 очень
жарко
1017.4 1002.2
СЗ 2 28 км 3/3 2000 м
[Cu med, cong]
+33.1 +13.2 30 +34 +38 очень
жарко
1017.1 1001.9
С 3 28 км 1/1 2000 м
[Cu med, cong]
+32.2 +14.8 35 +34 +36 душно 1016.8 1001.6
С 3 28 км 1/1 2000 м
[Cu med, cong]
+30.7 +15.6 40 +33 +34 душно 1016.8 1001.5
С 3 30 км 1/1 1300 м
[Cb cap Ci fib]
+28.4 +16.7 49 +32 +32 душно 1017.1 1001.7 +33.9
СЗ 3 30 км 1/0
[Ci fib]
+24.7 +15.6 57 +28 +28 душно 1017.4 1001.8
С 2 30 км ясно +22.2 +15.6 66 +26 +26 душно 1017.5 1001.8
СЗ 2 н/о н/о +20.6 +15.4 72 +24 +24 комфорт 1017.5 1001.7
СЗ 3 н/о н/о +21.7 +16.2 71 +25 +25 комфорт 1017.2 1001.5
С 2 н/о н/о +20.5 +16.3 77 +24 +24 комфорт 1017.2 1001.4
С 2 н/о н/о +19.6 +16.3 81 +22 +22 комфорт 1017.3 1001.4
СЗ 3 н/о н/о +18.1 +15.7 86 +18 +18 1017.2 1001.3
СЗ 3 н/о н/о +16.9 +14.0 83 +17 +17 1017.4 1001.4
С 3 н/о н/о +16.9 +15.4 91 +17 +17 1017.5 1001.5
СЗ 3 н/о н/о +17.0 +15.2 89 +17 +17 1017.6 1001.6
СЗ 2 н/о н/о +18.1 +15.5 85 +19 +19 1017.6 1001.7
СЗ 2 26 км ясно +21.6 +16.6 73 +25 +29 комфорт 1017.7 1001.9 +16.1
28 км ясно +25.0 +18.2 66 1017.4 1001.8
В 3 28 км 1/0
[Ac lent]
+28.9 +17.1 49 +33 +40 очень
душно
1017.1 1001.7
В 3 26 км 1/0
[Ac lent]
+30.4 +16.4 43 +34 +44 очень
душно
1016.8 1001.5
В 4 28 км 1/1 1500 м
[Cu med, cong]
+31.5 +16.7 41 +35 +44 очень
душно
1016.4 1001.2
В 3 28 км 1/1 1500 м
[Cu med, cong Ci ing]
+32.2 +15.7 37 +35 +46 очень
душно
1015.9 1000.7
нст 2 28 км 3/3 1500 м
[Cu med, cong Ci sp]
+33.3 +17.1 38 +37 +47 очень
душно
1015.4 1000.3
26 км 4/4 1500 м
[Cb calv]
+31.8 +17.0 41 1015.1 999.9
ЮВ 2 25 км 5/5 1500 м
[Cb cap Ci ing]
+32.6 +15.6 36 +35 +39 душно 1014.7 999.5
СВ 4 28 км слаб. ливневой дождь 5/5 1470 м
[Cb cap Ci ing]
+30.3 +16.7 44 +34 +35 очень
душно
1014.4 999.1
30 км в посл. час ливневой дождь 1/1 1500 м
[Cb cap Ac cuf Ci ing]
+31.1 +16.3 41 1014.2 999.0
З 2 30 км 3/1 1500 м
[Cu med, cong Ac lent Ci fib]
+30.7 +18.1 47 +35 +36 очень
душно
1013.9 998.7
штиль 0 35 км {ливн. дождь} 3/1 1500 м
[Cu med, cong Ac cuf Ci fib]
+28.5 +18.0 53 +33 +33 очень
душно
1014.2 998.9 +33.3 0.0
30 км 1/1 1380 м
[Sc diur, vesp Ac lent Ci fib]
+26.0 +18.4 63 1014.7 999.2
30 км 3/0
[Ac lent Ci sp]
+22.7 +17.0 70 1015.3 999.6
н/о н/о +22.9 +16.9 69 1015.4 999.7
В 4 н/о н/о +22.2 +17.4 74 +27 +27 душно 1015.7 1000.0
н/о н/о +21.1 +17.1 78 1015.6 999.8
нст 1 н/о н/о +21.8 +16.5 72 +26 +26 душно 1015.3 999.6
н/о н/о +20.3 +16.1 77 1015.4 999.6
СВ 2 н/о н/о +22.0 +16.1 69 +26 +26 душно 1015.4 999.7
н/о н/о +19.6 +16.1 80 1015.5 999.7
н/о н/о +18.7 +16.0 84 1015.8 999.9
СВ 2 н/о н/о +20.3 +17.5 84 +24 +24 комфорт 1016.0 1000.2
нст 1 30 км 1/0
[Ac lent]
+24.5 +16.8 62 +28 +32 душно 1016.0 1000.4 +18.6 0.0
В 3 30 км 1/0
[Ac cast]
+27.0 +17.2 55 +31 +36 душно 1015.8 1000.4
30 км 1/1 1200 м
[Cu med, cong Ac lent]
+28.7 +17.3 50 1015.6 1000.2
нст 2 30 км 1/1 1350 м
[Cu med, cong Ac lent]
+30.1 +17.2 46 +34 +46 очень
душно
1015.3 1000.0
Ю 3 30 км 3/1 1500 м
[Cu med, cong Ac lent Ci fib]
+30.8 +17.2 44 +35 +44 очень
душно
1015.0 999.8
30 км 4/3 1500 м
[Cb calv Ac lent Ci fib]
+31.8 +16.6 40 1014.7 999.5
ЮЗ 3 30 км 5/4 1500 м
[Cb calv Ac cuf Ci fib]
+32.5 +16.4 38 +35 +42 душно 1014.0 998.9
30 км 6/5 1500 м
[Cb cap Ac cuf Ci fib]
+33.1 +16.5 37 1013.4 998.3
З 5 27 км гроза без осадков 8/5 1500 м
[Cb cap Ac cuf Ci fib]
+30.2 +16.6 44 +34 +35 очень
душно
1014.0 998.7
СВ 11 30 км в посл. час гроза 9/5 1500 м
[Cb cap Ac cuf]
+25.2 +17.4 62 +29 +29 душно 1015.0 999.5
СЗ 3 17 км гроза, ливневой дождь 9/4 1350 м
[Cb cap Ac cuf]
+22.3 +18.3 78 +27 +28 душно 1016.8 1001.1
22 км слаб. ливневой дождь, в посл. час гроза 8/3 1200 м
[Cb cap Ac cuf Ci fib]
+22.4 +19.6 84 1015.5 999.8
СВ 4 30 км {гроза, ливн. дождь} 8/1 1200 м
[Cb cap Ac cuf Ci ing]
+21.4 +18.8 85 +26 +26 душно 1015.8 1000.1 +33.7 1
СВ 4 30 км 6/0
[Ac cuf Ci ing]
+21.1 +17.3 79 +25 +25 комфорт 1016.0 1000.3
СВ 3 30 км 5/0
[Ac lent Ci fib]
+20.1 +17.5 85 +23 +23 комфорт 1016.0 1000.2
н/о н/о +20.0 +16.6 81 1016.0 1000.2
н/о н/о +18.5 +17.2 92 1016.9 1001.0
СЗ 3 н/о н/о +17.6 +16.4 93 +18 +18 1017.0 1001.0
нст 1 н/о н/о +17.5 +17.0 97 +19 +19 1017.1 1001.1
СЗ 2 н/о н/о +17.7 +16.7 94 +18 +18 1016.8 1000.8
н/о н/о +17.6 +16.8 95 1017.2 1001.2
н/о н/о +17.1 +16.6 97 1017.0 1001.0
н/о н/о +16.8 +16.2 96 1017.2 1001.2
н/о н/о +17.8 +17.5 98 1017.4 1001.5
нст 1 15 км 8/0
[Ac cuf Ci fib]
+20.1 +17.3 84 +24 +26 комфорт 1017.3 1001.5 +16.7 1.4
15 км 9/0
[Ac As Ci fib]
+21.6 +17.4 77 1017.6 1001.8
20 км 9/1 1200 м
[Cu med, cong Ac cast Ci fib]
+22.3 +17.7 75 1017.7 1002.0
нст 1 20 км 9/1 1080 м
[Cu med, cong Ac cast Ci fib]
+23.4 +18.1 72 +29 +37 душно 1017.8 1002.2
20 км 8/3 1080 м
[Cu med, cong Ac lent Ci fib]
+26.5 +17.3 57 1018.0 1002.5
20 км 8/3 1080 м
[Cu med, cong Ac lent Ci fib]
+27.1 +16.4 52 1017.7 1002.2
СЗ 2 20 км 8/3 1080 м
[Cu med, cong Ac lent Ci fib]
+28.5 +17.4 51 +33 +39 очень
душно
1016.9 1001.5
Местоположение метеостанции Нитра (Словакия): широта 48.28 долгота 18.13 высота над уровнем моря 136 м.
В архиве по умолчанию представлена погода в Нитре за последнюю неделю. Архивные данные за месяц целиком и за предыдущие месяцы, начиная с января 2011 года, Вы можете получить, выбрав интересующий диапазон дат из раскрывающегося списка и нажав кнопку "Найти!".
*Определитесь, кто Вы:
Внимание! Время в таблицах - всемирное. Для получения местного времени необходимо прибавить поправку, которая равна 1 ч.
Смотрите также архив погоды в соседних городах и на ближайших метеорологических станциях:
Партнеры нашего сайта:      
Пояснения к столбцам:
  • Ветер - указаны скорость ветра в м/с - средняя за 10 мин, порывы в срок и между сроками (в фигурных скобках) и направление, откуда дует ветер: С - северный,
  • СВ - северо-восточный, В - восточный, ЮВ - юго-восточный, Ю - южный, ЮЗ - юго-западный, З - западный, СЗ - северо-западный.
  • Видимость - горизонтальная дальность видимости в метрах или километрах. При видимости от 1 до 10 км при отсутствии осадков обычно наблюдается дымка, при ухудшении видимости до 1 км и менее - туман. В сухую погоду видимость может ухудшаться дымом, пылью или мглою.
  • Явления - указаны атмосферные явления, наблюдавшиеся в срок или в последний час перед сроком; фигурными скобками обозначены явления, наблюдавшиеся между сроками (за 1-3 часа до срока); квадратными скобками обозначены град или гололедные отложения с указанием их диаметра в мм.
  • Облачность - указаны через наклонную черту общая и нижняя облачность в баллах и высота нижней границы облаков в метрах; квадратными скобками обозначены формы облаков: Ci - перистые, Cs - перисто-слоистые, Cc - перисто-кучевые, Ac - высококучевые, As - высокослоистые, Sc - слоисто-кучевые, Ns - слоисто-дождевые, Cu - кучевые, Cb - кучево-дождевые. Подробнее классификацию облаков см. в Атласе облаков (PDF).
  • T - Температура воздуха - температура, измеренная на высоте 2 м над землей.
  • Td - Температура точки росы - температура, при понижении до которой содержащийся в воздухе водяной пар достигнет насыщения.
  • f - Относительная влажность воздуха - влажноcть воздуха, измеренная на высоте 2 м над землей.
  • Te - Эффективная температура - температура, которую ощущает одетый по сезону человек в тени. Характеристика душности погоды. При расчете учитывается влияние влажности воздуха и скорости ветра на теплоощущения человека.
  • Tes - Эффективная температура на солнце - температура, которую ощущает человек, с поправкой на солнечный нагрев. Характеристика знойности погоды. Зависит от высоты солнца над горизонтом, облачности и скорости ветра. Ночью, в пасмурную погоду, а также при ветре 12 м/с и более поправка равна нулю.
  • P - Атмосферное давление - приведенное к уровню моря атмосферное давление.
  • Po - Атмосферное давление - измеренное на уровне метеостанции атмосферное давление.
  • Tmin - Минимальная температура - минимум температуры воздуха на высоте 2 м над землей.
  • Tmax - Максимальная температура - максимум температуры воздуха на высоте 2 м над землей.
  • R - Количество осадков - Количество выпавших осадков за период времени, мм. При наведении курсора мыши на число - период времени, за который выпало указанное количество осадков.
  • R24 - Количество осадков - Количество выпавших осадков за 24 часа, мм.
  • S - Снежный покров - Высота снежного покрова, см. При наведении курсора мыши на число - состояние снежного покрова и степень покрытия местности в баллах.